Location: Byszew
(52.1813°N, 19.2693°E)
Time: 14:06:07
(UTC+00:00)

Nadezhda 3 Rocket - Pass Details

Date: 03 March 2021
Orbit: 957 x 999 km, 82.9° (Epoch: 10 April)

Event Time Altitude Azimuth Distance (km) Brightness Sun altitude
Rises 17:25:36 0° 349° (N) 3,724 7.2 -9.9°
Reaches altitude 10° 17:28:08 10° 350° (N) 2,775 6.6 -10.3°
Maximum altitude 17:34:32 89° 77° (ENE) 1,007 4.1 -11.3°
Drops below altitude 10° 17:40:55 10° 171° (S) 2,763 6.2 -12.2°
Sets 17:43:26 0° 172° (S) 3,707 6.9 -12.6°
